Monterey, CA

4:58 PM PDT on May 20, 2018 (GMT -0700)
Monterey Peninsula

Weather History for KMRY - December, 2011

Change the Weather History Date:

Tuesday, December 27, 2011

  Actual Average Record
Temperature  
Mean Temperature 48 °F 51 °F  
Max Temperature 59 °F 60 °F 69 °F (2013)
Min Temperature 37 °F 42 °F 32 °F (2015)
Degree Days  
Heating Degree Days 17    
Month to date heating degree days 424  
Since 1 July heating degree days 1335  
Cooling Degree Days 0    
Month to date cooling degree days 0  
Year to date cooling degree days 33  
Moisture  
Dew Point 38 °F    
Average Humidity 72    
Maximum Humidity 92    
Minimum Humidity 51    
Precipitation  
Precipitation 0.00 in - 1.38 in (1948)
Month to date precipitation 0.20  
Year to date precipitation 16.59  
Since 1 July precipitation 3.80  
Sea Level Pressure  
Sea Level Pressure 30.34 in    
Wind  
Wind Speed 5 mph (East)    
Max Wind Speed 13 mph    
Max Gust Speed 16 mph    
Visibility 6 miles    
Events Fog    
T = Trace of Precipitation, MM = Missing Value Source: NWS Daily Summary

Daily Weather History Graph

Daily Weather History Graph

Search for Another Location

Airport or City:

Astronomy

Dec. 27, 2011 Rise Set
Actual Time 7:18 AM PST 4:58 PM PST
Civil Twilight 6:49 AM PST 5:27 PM PST
Nautical Twilight 6:17 AM PST 5:59 PM PST
Astronomical Twilight 5:45 AM PST 6:31 PM PST
Moon 9:21 AM PST (12/27) 8:32 PM PST (12/27)
Length of Visible Light 10h 38m
Length of Day
9h 40m
Waxing Crescent, 11% of the Moon is Illuminated
Dec 27
Waxing Crescent
Dec 31
First Quarter
Jan 8
Full
Jan 16
Last Quarter
Jan 22
New

Hourly Weather History & Observations

Time (PST) Temp. Windchill Dew Point Humidity Pressure Visibility Wind Dir Wind Speed Gust Speed Precip Events Conditions
12:42 AM 41.0 °F 37.1 °F 37.4 °F 87% 30.34 in 7.0 mi ESE 5.8 mph - N/A   Mostly Cloudy
12:54 AM 42.1 °F 38.4 °F 37.9 °F 85% 30.39 in 7.0 mi East 5.8 mph - N/A   Overcast
1:54 AM 44.1 °F 40.1 °F 39.0 °F 82% 30.38 in 7.0 mi East 6.9 mph - N/A   Overcast
2:52 AM 42.8 °F 39.3 °F 37.4 °F 81% 30.32 in 6.0 mi East 5.8 mph - N/A   Haze
2:54 AM 42.1 °F 38.4 °F 37.9 °F 85% 30.36 in 6.0 mi East 5.8 mph - N/A   Partly Cloudy
3:54 AM 39.9 °F 35.8 °F 35.1 °F 83% 30.36 in 7.0 mi East 5.8 mph - N/A   Clear
4:54 AM 39.0 °F 35.7 °F 35.1 °F 86% 30.35 in 6.0 mi ENE 4.6 mph - N/A   Clear
5:54 AM 39.2 °F 37.0 °F 35.6 °F 87% 30.31 in 4.0 mi NE 3.5 mph - N/A   Scattered Clouds
6:02 AM 39.2 °F 37.0 °F 35.6 °F 87% 30.31 in 3.0 mi East 3.5 mph - N/A   Mostly Cloudy
6:13 AM 39.2 °F - 37.4 °F 93% 30.32 in 1.8 mi Calm Calm - N/A   Overcast
6:40 AM 41.0 °F - 37.4 °F 87% 30.32 in 0.8 mi Calm Calm - N/A   Overcast
6:51 AM 41.0 °F 39.0 °F 37.4 °F 87% 30.32 in 1.5 mi NE 3.5 mph - N/A   Overcast
6:54 AM 41.0 °F 38.0 °F 37.9 °F 89% 30.36 in 2.0 mi NE 4.6 mph - N/A   Overcast
7:46 AM 41.0 °F 39.0 °F 37.4 °F 87% 30.32 in 3.0 mi NE 3.5 mph - N/A   Overcast
7:54 AM 41.0 °F 39.0 °F 37.9 °F 89% 30.36 in 2.0 mi East 3.5 mph - N/A   Overcast
7:58 AM 41.0 °F 38.0 °F 37.4 °F 87% 30.32 in 0.5 mi East 4.6 mph - N/A Fog Fog
8:54 AM 41.0 °F 38.0 °F 37.9 °F 89% 30.36 in 0.5 mi East 4.6 mph - N/A Fog Fog
8:57 AM 41.0 °F 36.4 °F 37.4 °F 87% 30.32 in 4.0 mi East 6.9 mph - N/A   Scattered Clouds
9:54 AM 45.0 °F - 37.9 °F 76% 30.36 in 10.0 mi Calm Calm - N/A   Clear
10:54 AM 48.9 °F - 39.0 °F 69% 30.35 in 10.0 mi Variable 3.5 mph - N/A   Clear
11:54 AM 55.9 °F - 37.0 °F 49% 30.31 in 10.0 mi Variable 3.5 mph - N/A   Clear
12:54 PM 55.0 °F - 37.9 °F 53% 30.31 in 10.0 mi WNW 5.8 mph - N/A   Clear
1:54 PM 54.0 °F - 41.0 °F 62% 30.32 in 10.0 mi WNW 9.2 mph - N/A   Clear
2:54 PM 54.0 °F - 44.1 °F 69% 30.33 in 8.0 mi WNW 6.9 mph - N/A   Clear
3:54 PM 54.0 °F - 43.0 °F 66% 30.34 in 9.0 mi Calm Calm - N/A   Clear
4:54 PM 51.1 °F - 42.1 °F 71% 30.34 in 10.0 mi East 3.5 mph - N/A   Clear
5:54 PM 50.0 °F - 39.0 °F 66% 30.33 in 10.0 mi East 9.2 mph - N/A   Clear
6:54 PM 46.9 °F - 37.9 °F 71% 30.33 in 10.0 mi Calm Calm - N/A   Clear
7:54 PM 46.0 °F 44.8 °F 36.0 °F 68% 30.34 in 10.0 mi SSE 3.5 mph - N/A   Clear
8:54 PM 44.1 °F 41.5 °F 35.1 °F 71% 30.35 in 10.0 mi East 4.6 mph - N/A   Clear
9:54 PM 46.4 °F 44.3 °F 37.4 °F 71% 30.34 in 10.0 mi South 4.6 mph - N/A   Clear
10:54 PM 41.0 °F 36.4 °F 34.0 °F 76% 30.40 in 10.0 mi East 6.9 mph - N/A   Clear
11:54 PM 43.0 °F 41.3 °F 35.1 °F 74% 30.39 in 10.0 mi SE 3.5 mph - N/A   Clear